[[{"header":{"parameterUnit":"m.s-1","parameterCategory":2,"la1":30.2991,"la2":30.254,"lo1":-89.0895,"lo2":-89.0444,"dy":0.0017,"dx":0.0017,"nx":28,"ny":28,"refTime":"2023-07-22T03:00:00:Z","depth":"0","parameterNumber":2,"parameterNumberName":"U-component_of_CURRENTS"},"data":[0,0,0,0,0,0,0,0,0,0,0,0,0,0,0,0,0,0,0,0,0,0,0,0,0,0,0,0,0,0,0,0,0,0,0,0,0,0,0,0,0,0,0,0,0,0,0,0,0,0,0,0,0,0,0,0,0,0,0.3202,0.3202,0,0.3374,0.3378,0.3381,0.3535,0.3535,0.3535,0.3535,0.3507,0.3506,0.3505,0,0,0,0,0,0,0,0,0,0,0,0,0,0.3363,0.3359,0.3202,0.3202,0.3203,0.3373,0.3378,0.3382,0.3535,0.3535,0.3535,0.3535,0.3507,0.3506,0.3505,0,0,0,0,0,0,0,0,0,0,0,0,0,0.3408,0.3357,0.3202,0.3285,0.3292,0.3373,0.3378,0.3383,0.3535,0.3535,0.3535,0.3535,0.3507,0.3506,0.3505,0.3499,0,0,0.3502,0.3501,0,0,0,0,0,0,0,0,0.3405,0.3404,0.3272,0.3279,0.3287,0.3415,0.3424,0.3405,0.3535,0.3464,0.3535,0.3535,0.3444,0.3449,0.3513,0.3498,0.3497,0.3502,0.3501,0.3501,0.35,0,0,0,0,0,0,0,0.3401,0.34,0.3291,0.3272,0.3281,0.3434,0.344,0.3425,0.3464,0.347,0.3477,0.3464,0.345,0.3514,0.3512,0.3496,0.3502,0.3501,0.35,0.35,0.3506,0.3507,0,0,0,0,0,0,0.3319,0.3394,0.3285,0.3294,0.3325,0.3428,0.3436,0.3391,0.3469,0.3477,0.3464,0.347,0.3516,0.3513,0.3511,0.3525,0.3501,0.35,0.3499,0.3505,0.3506,0.3507,0,0,0,0,0,0,0.3322,0.3307,0.3277,0.3335,0.3339,0.342,0.3373,0.3394,0.3461,0.3462,0.3471,0.3506,0.3515,0.3512,0.3549,0.3523,0.3499,0.3498,0.3504,0.3506,0.3507,0.3539,0,0,0,0,0,0,0.3325,0.3306,0.3309,0.3327,0.3332,0.3309,0.3371,0.3396,0.3443,0.3454,0.35,0.3499,0.3515,0.3551,0.3548,0.3521,0.3497,0.3503,0.3505,0.3506,0.3537,0.3542,0.3545,0,0,0,0,0,0.333,0.3352,0.3307,0.3297,0.3309,0.3306,0.3326,0.3401,0.3444,0.3468,0.3539,0.3498,0.3556,0.3553,0.3548,0.352,0.3502,0.3504,0.3506,0.3536,0.3541,0.3545,0,0,0,0,0,0,0.344,0.3366,0.332,0.3317,0.3281,0.3324,0.3359,0.3398,0.3485,0.3486,0.3531,0.3535,0.3559,0.3538,0.3533,0.3528,0.3511,0.3512,0.3535,0.3539,0.3543,0.3573,0.3496,0,0,0,0,0,0.344,0.3433,0.3349,0.3347,0.3298,0.3319,0.3348,0.3361,0.3405,0.3448,0.3495,0.3527,0.3564,0.3553,0.3581,0.3569,0.3579,0.3542,0.3546,0.3549,0.3572,0.3607,0.3617,0.3513,0.3513,0.3513,0,0,0.3474,0.344,0.3432,0.337,0.3341,0.3301,0.3342,0.3331,0.3366,0.3417,0.3512,0.355,0.3575,0.3601,0.3599,0.3572,0.3579,0.3552,0.3555,0.3576,0.3611,0.3621,0.363,0.3514,0.3514,0.3514,0,0,0.3509,0.3473,0.3438,0.3385,0.3302,0.3321,0.3299,0.3302,0.3364,0.3425,0.3489,0.3542,0.3574,0.3617,0.3634,0.3666,0.3621,0.3625,0.3641,0.3674,0.3683,0.3692,0.3696,0.3705,0.36,0.36,0.36,0,0.3541,0.3472,0.3439,0.3359,0.3323,0.331,0.3244,0.3312,0.3368,0.3412,0.3441,0.3574,0.3599,0.365,0.3687,0.3675,0.3673,0.362,0.3681,0.3689,0.3697,0.37,0.3709,0.3602,0.3602,0.3601,0.3601,0,0.3492,0.3442,0.3407,0.33,0.3283,0.3224,0.3213,0.3267,0.3339,0.3399,0.3487,0.3575,0.3645,0.3647,0.3693,0.3738,0.3712,0.3703,0.367,0.371,0.3709,0.3718,0.3604,0.3604,0.3603,0.3603,0,0,0.3507,0.3395,0.3375,0.3299,0.3228,0.3192,0.3245,0.3272,0.3318,0.3414,0.3498,0.3613,0.3657,0.3685,0.3718,0.3759,0.3832,0.3755,0.3756,0.3762,0.388,0.3727,0.3722,0.3822,0.3824,0.3826,0.3849,0,0.3448,0.3324,0.3309,0.3215,0.3115,0.313,0.3188,0.3229,0.3317,0.3414,0.3515,0.3596,0.3664,0.3689,0.3757,0.3833,0.386,0.3826,0.3839,0.384,0.3702,0.3729,0.346,0.3446,0.3857,0.3859,0.386,0,0.334,0.3294,0.3183,0.3124,0.3079,0.3076,0.3118,0.3158,0.3289,0.3359,0.3463,0.3547,0.3676,0.3706,0.3857,0.3825,0.3866,0.3908,0.3908,0.3768,0.3704,0.3477,0.3447,0.3364,0.3873,0.3872,0.3871,0,0.3293,0.3185,0.3123,0.3077,0.3036,0.3044,0.3058,0.3142,0.3181,0.3316,0.3359,0.3519,0.3592,0.3707,0.3851,0.3845,0.3987,0.3973,0.3862,0.385,0.3627,0.3591,0.3522,0.4048,0.4048,0.4048,0.4048,0,0.3204,0.3131,0.3096,0.3041,0.2998,0.2979,0.2982,0.3034,0.3121,0.3154,0.3314,0.3375,0.3599,0.3717,0.3835,0.3885,0.3971,0.3879,0.3852,0.3625,0.359,0.3513,0.3486,0.4049,0.4049,0.4049,0.4048,0,0.3127,0.309,0.299,0.2963,0.2951,0.2907,0.2898,0.2919,0.3001,0.3053,0.3093,0.3282,0.3413,0.36,0.3777,0.3816,0.3761,0.3882,0.3591,0.3529,0.3299,0.3282,0.3087,0.3027,0.374,0.3736,0.3733,0,0.306,0.3016,0.2937,0.2873,0.2854,0.281,0.2801,0.2858,0.2881,0.2987,0.3015,0.3148,0.3246,0.3439,0.3528,0.3641,0.3596,0.3419,0.3363,0.3251,0.3216,0.3133,0.3094,0.308,0.3071,0.3065,0.306,0,0.2967,0.2953,0.2885,0.2786,0.2729,0.2682,0.2671,0.2677,0.276,0.2788,0.2839,0.2911,0.3062,0.3069,0.3198,0.3233,0.3184,0.3279,0.3245,0.2758,0.2582,0.2521,0.3104,0.3,0.3006,0.3011,0.3014,0.3016,0.2887,0.2818,0.2747,0.2652,0.2587,0.255,0.2496,0.2512,0.2502,0.2495,0.2624,0.2617,0.2663,0.2793,0.2821,0.2645,0.2776,0.2546,0.2557,0.2503,0.2361,0.28,0.2616,0.2619,0.2623,0.2625,0.2628,0,0.276,0.2707,0.2619,0.2478,0.2405,0.2427,0.2402,0.2345,0.2285,0.2266,0.225,0.2182,0.214,0.2178,0.207,0.1973,0.1925,0.1914,0.1757,0.1783,0.2224,0.2112,0.1708,0.1708,0.1708,0.1708,0.1709,0.1709,0.2652,0.2554,0.2531,0.2351,0.2275,0.2151,0.2124,0.2044,0.1993,0.1821,0.1714,0.1731,0.1782,0.1634,0.1475,0.1433,0.1398,0.1232,0.1416,0.1733,0.1794,0.1853,0.1744,0.127,0.1269,0.0844,0.0841,0.0838]},{"header":{"parameterUnit":"m.s-1","parameterCategory":2,"la1":30.2991,"la2":30.254,"lo1":-89.0895,"lo2":-89.0444,"dy":0.0017,"dx":0.0017,"nx":28,"ny":28,"refTime":"2023-07-22T03:00:00:Z","depth":"0","parameterNumber":3,"parameterNumberName":"V-component_of_CURRENTS"},"data":[0,0,0,0,0,0,0,0,0,0,0,0,0,0,0,0,0,0,0,0,0,0,0,0,0,0,0,0,0,0,0,0,0,0,0,0,0,0,0,0,0,0,0,0,0,0,0,0,0,0,0,0,0,0,0,0,0,0,0.0181,0.0181,0,0.0238,0.0239,0.024,0.0263,0.0263,0.0262,0.0262,0.0258,0.0258,0.0259,0,0,0,0,0,0,0,0,0,0,0,0,0,0.0126,0.0127,0.0181,0.0181,0.0182,0.0238,0.0239,0.024,0.0263,0.0263,0.0262,0.0262,0.0258,0.0258,0.0259,0,0,0,0,0,0,0,0,0,0,0,0,0,0.0166,0.0127,0.0181,0.0198,0.02,0.0238,0.0239,0.024,0.0263,0.0263,0.0262,0.0262,0.0258,0.0258,0.0259,0.0273,0,0,0.026,0.026,0,0,0,0,0,0,0,0,0.0163,0.0168,0.0195,0.0197,0.0199,0.024,0.0218,0.0247,0.0264,0.0242,0.0262,0.0261,0.0245,0.0246,0.0264,0.0273,0.0272,0.026,0.026,0.026,0.026,0,0,0,0,0,0,0,0.016,0.0166,0.0206,0.0195,0.0198,0.0214,0.0219,0.0224,0.0247,0.0244,0.0245,0.0247,0.0246,0.0263,0.0263,0.0272,0.026,0.026,0.026,0.0261,0.0315,0.0317,0,0,0,0,0,0,0.0147,0.0163,0.0204,0.0208,0.0176,0.0215,0.0221,0.023,0.0249,0.0251,0.0248,0.0248,0.0263,0.0263,0.0263,0.0307,0.026,0.0261,0.0261,0.0314,0.0316,0.0317,0,0,0,0,0,0,0.0145,0.015,0.0202,0.0184,0.0191,0.0216,0.0226,0.0231,0.0258,0.0251,0.0253,0.0269,0.0262,0.0263,0.0279,0.0306,0.0261,0.0261,0.0313,0.0315,0.0316,0.0377,0,0,0,0,0,0,0.0144,0.0149,0.0153,0.0183,0.0192,0.0231,0.0227,0.0233,0.0257,0.0259,0.027,0.0269,0.0262,0.0279,0.0279,0.0305,0.0261,0.0311,0.0314,0.0316,0.0374,0.0381,0.0387,0,0,0,0,0,0.0142,0.0153,0.0154,0.0158,0.0196,0.0232,0.0239,0.0256,0.0259,0.0277,0.0284,0.0269,0.0294,0.028,0.0281,0.0307,0.031,0.0313,0.0316,0.0371,0.0379,0.0387,0,0,0,0,0,0,0.0123,0.0157,0.0158,0.0176,0.0202,0.0235,0.0243,0.0265,0.0288,0.0283,0.0284,0.0284,0.0309,0.03,0.0285,0.033,0.03,0.0303,0.0341,0.0349,0.0356,0.0383,0.0262,0,0,0,0,0,0.0121,0.0154,0.0171,0.0193,0.0191,0.022,0.0237,0.0254,0.0276,0.0287,0.03,0.0308,0.0322,0.0328,0.0335,0.0359,0.035,0.0376,0.0383,0.0389,0.0412,0.0414,0.0423,0.0326,0.0326,0.0326,0,0,0.0116,0.0146,0.0159,0.0194,0.0205,0.0228,0.023,0.0256,0.03,0.028,0.0333,0.0331,0.0334,0.0363,0.0373,0.0358,0.041,0.0392,0.0397,0.0418,0.0418,0.0427,0.0435,0.0328,0.0328,0.0327,0,0,0.013,0.0144,0.0164,0.0195,0.0221,0.024,0.0249,0.0284,0.0315,0.0361,0.0359,0.0379,0.0401,0.0417,0.0424,0.0473,0.0445,0.0469,0.0526,0.0528,0.0536,0.0543,0.0536,0.0542,0.0472,0.0472,0.0473,0,0.0114,0.0154,0.0175,0.0207,0.0232,0.0246,0.0269,0.0311,0.0362,0.0392,0.0381,0.0439,0.0434,0.0485,0.0504,0.0491,0.048,0.0494,0.0537,0.0544,0.055,0.0541,0.0546,0.0476,0.0475,0.0475,0.0475,0,0.0132,0.0178,0.0191,0.024,0.0269,0.0297,0.0338,0.0381,0.0409,0.0452,0.0511,0.0517,0.0551,0.0553,0.0546,0.0596,0.0571,0.0543,0.0516,0.0563,0.055,0.0555,0.048,0.0479,0.0478,0.0477,0,0,0.0054,0.0176,0.0179,0.0228,0.0291,0.0318,0.0385,0.0445,0.0497,0.0547,0.0619,0.0651,0.0656,0.0667,0.066,0.0671,0.0698,0.0633,0.0632,0.0627,0.0697,0.0695,0.0699,0.0673,0.0674,0.0675,0.0667,0,0.005,0.0133,0.019,0.0271,0.0309,0.0367,0.0432,0.0501,0.0556,0.0631,0.0666,0.0715,0.07,0.071,0.0728,0.0711,0.0716,0.0703,0.0653,0.0652,0.0644,0.0707,0.0742,0.074,0.0672,0.0672,0.0673,0,0.0026,0.0104,0.0172,0.0315,0.0326,0.0375,0.047,0.0536,0.0643,0.0688,0.0755,0.0782,0.0838,0.0797,0.0815,0.0805,0.0765,0.0742,0.0739,0.0726,0.066,0.0684,0.0751,0.0736,0.068,0.068,0.0679,0,-0.0041,0.009,0.0152,0.0197,0.0337,0.0381,0.0441,0.0544,0.0614,0.0722,0.0776,0.0843,0.0873,0.0861,0.0841,0.0821,0.0842,0.0794,0.0755,0.0752,0.077,0.0768,0.0823,0.0792,0.0792,0.0792,0.0792,0,-0.0059,0.0002,0.0133,0.0172,0.0259,0.0353,0.0435,0.0516,0.0629,0.0722,0.0794,0.0871,0.0889,0.0913,0.0872,0.0851,0.0861,0.0792,0.0765,0.0791,0.0791,0.0767,0.0744,0.0792,0.0792,0.0792,0.0792,0,-0.0109,-0.0036,0.0057,0.0191,0.0236,0.0294,0.0437,0.0509,0.0606,0.0732,0.0769,0.0893,0.0929,0.0934,0.0915,0.0886,0.0864,0.0828,0.0862,0.084,0.079,0.0768,0.078,0.085,0.0795,0.0795,0.0795,0,-0.0106,-0.0071,0.005,0.0101,0.017,0.0272,0.035,0.0481,0.0571,0.0749,0.0816,0.0897,0.098,0.0976,0.0943,0.0894,0.0865,0.0869,0.0843,0.0825,0.0779,0.0748,0.0807,0.088,0.0881,0.0882,0.0882,0,-0.0086,-0.0073,-0.0004,0.0083,0.0167,0.0286,0.0411,0.0479,0.0643,0.0745,0.089,0.0963,0.1004,0.1015,0.0965,0.0927,0.0902,0.0878,0.0861,0.0871,0.0843,0.0884,0.0833,0.0888,0.0887,0.0887,0.0887,0.0886,-0.0079,-0.0046,0.001,0.0098,0.0195,0.0322,0.0405,0.0535,0.0674,0.0843,0.091,0.1027,0.106,0.1019,0.0972,0.0923,0.0918,0.0896,0.0874,0.0847,0.0921,0.0885,0.0905,0.0904,0.0904,0.0904,0.0903,0,-0.0049,-0.0024,0.0041,0.015,0.0252,0.031,0.0472,0.0551,0.0698,0.0839,0.0947,0.1063,0.1056,0.1032,0.0969,0.0931,0.0946,0.091,0.089,0.0958,0.0927,0.0938,0.0967,0.0967,0.0967,0.0967,0.0967,0.0967,-0.003,0.001,0.0035,0.0192,0.0273,0.0418,0.0506,0.0604,0.0716,0.0866,0.0975,0.1072,0.1169,0.0971,0.0907,0.0901,0.0928,0.0885,0.0923,0.0885,0.0882,0.0879,0.0887,0.0904,0.0904,0.1005,0.1005,0.1005]}],[{"header":{"parameterUnit":"m.s-1","parameterCategory":2,"la1":30.2991,"la2":30.254,"lo1":-89.0895,"lo2":-89.0444,"dy":0.0017,"dx":0.0017,"nx":28,"ny":28,"refTime":"2023-07-22T03:00:00:Z","depth":"2","parameterNumber":2,"parameterNumberName":"U-component_of_CURRENTS"},"data":[0,0,0,0,0,0,0,0,0,0,0,0,0,0,0,0,0,0,0,0,0,0,0,0,0,0,0,0,0,0,0,0,0,0,0,0,0,0,0,0,0,0,0,0,0,0,0,0,0,0,0,0,0,0,0,0,0,0,0.1347,0.1342,0,0.0991,0.0988,0.0985,0.0904,0.0905,0.0906,0.0907,0.1438,0.145,0.1463,0,0,0,0,0,0,0,0,0,0,0,0,0,0.1234,0.1242,0.1348,0.1342,0.1336,0.0991,0.0988,0.0984,0.0903,0.0905,0.0906,0.0908,0.1434,0.1449,0.1464,0,0,0,0,0,0,0,0,0,0,0,0,0,0.1136,0.1245,0.1349,0.1245,0.1231,0.0992,0.0988,0.0983,0.0903,0.0905,0.0907,0.0909,0.1429,0.1447,0.1467,0.1548,0,0,0.1526,0.1534,0,0,0,0,0,0,0,0,0.1142,0.1142,0.1265,0.1251,0.1235,0.0982,0.114,0.1212,0.0903,0.1042,0.0907,0.091,0.1358,0.1383,0.1318,0.1573,0.1596,0.1528,0.1539,0.1548,0.1553,0,0,0,0,0,0,0,0.115,0.1152,0.122,0.1259,0.124,0.0965,0.0962,0.1147,0.1221,0.103,0.102,0.0958,0.1358,0.1298,0.1332,0.1604,0.1527,0.1544,0.1556,0.1564,0.1962,0.1961,0,0,0,0,0,0,0.1205,0.1164,0.1231,0.1208,0.1177,0.0968,0.0964,0.1072,0.1199,0.1208,0.0956,0.0955,0.1264,0.1309,0.1352,0.1545,0.1548,0.1566,0.1577,0.1963,0.1962,0.1961,0,0,0,0,0,0,0.1207,0.1222,0.1245,0.1154,0.1137,0.0973,0.109,0.1064,0.1036,0.113,0.1161,0.0958,0.1268,0.1325,0.1523,0.1565,0.1575,0.1592,0.1965,0.1963,0.1962,0.1882,0,0,0,0,0,0,0.1209,0.1229,0.1312,0.1166,0.1144,0.1119,0.1086,0.1055,0.0986,0.0983,0.1145,0.1189,0.1273,0.1493,0.1543,0.1592,0.1607,0.1966,0.1964,0.1962,0.1886,0.1878,0.1871,0,0,0,0,0,0.1209,0.1266,0.1324,0.1326,0.1278,0.1117,0.1082,0.0969,0.0985,0.096,0.1076,0.1186,0.1514,0.151,0.1568,0.1623,0.1967,0.1965,0.1962,0.189,0.188,0.1872,0,0,0,0,0,0,0.1229,0.1259,0.1318,0.1389,0.1288,0.1099,0.1053,0.0993,0.1039,0.1088,0.1214,0.1267,0.146,0.1538,0.1529,0.1716,0.1745,0.1754,0.167,0.1663,0.1655,0.1669,0.1624,0,0,0,0,0,0.1294,0.133,0.132,0.1326,0.1361,0.1238,0.1161,0.1087,0.108,0.1093,0.1205,0.1338,0.1478,0.157,0.171,0.1841,0.1894,0.1893,0.1886,0.1879,0.1921,0.2014,0.202,0.1953,0.1953,0.1953,0,0,0.1277,0.1279,0.1303,0.1324,0.1284,0.1263,0.1204,0.1103,0.1047,0.1174,0.1234,0.1369,0.1515,0.1636,0.1724,0.1719,0.1903,0.1876,0.187,0.1917,0.2013,0.202,0.2026,0.1952,0.1952,0.1952,0,0,0.1206,0.1343,0.1392,0.1377,0.1321,0.1226,0.123,0.115,0.1132,0.1171,0.1261,0.1406,0.1586,0.167,0.1746,0.1791,0.1887,0.1825,0.1795,0.1883,0.189,0.1898,0.188,0.1887,0.1789,0.1789,0.1789,0,0.1227,0.1285,0.1334,0.139,0.1338,0.1254,0.1256,0.1202,0.1147,0.1182,0.1203,0.1449,0.1594,0.1739,0.1732,0.1789,0.1813,0.1822,0.1877,0.1886,0.1896,0.1876,0.1885,0.1785,0.1786,0.1786,0.1786,0,0.128,0.1277,0.1287,0.1365,0.1326,0.1255,0.1252,0.1241,0.1219,0.1175,0.1329,0.1465,0.1618,0.165,0.1726,0.1852,0.1835,0.1882,0.1905,0.1898,0.1876,0.1887,0.1779,0.1781,0.1782,0.1783,0,0,0.1446,0.1354,0.1369,0.1347,0.1309,0.1274,0.1256,0.1215,0.1245,0.1251,0.1307,0.1499,0.1588,0.1678,0.1775,0.1829,0.1893,0.1877,0.1883,0.1867,0.2013,0.1743,0.1728,0.1954,0.1958,0.1961,0.1936,0,0.1468,0.1459,0.1419,0.1331,0.1327,0.1291,0.1277,0.1252,0.1231,0.1282,0.1393,0.1525,0.1582,0.1695,0.1758,0.1912,0.1934,0.1891,0.2019,0.2021,0.1792,0.1738,0.168,0.1634,0.1947,0.1949,0.1951,0,0.1595,0.1515,0.149,0.13,0.1349,0.1321,0.1328,0.1308,0.1358,0.1383,0.1486,0.1563,0.1708,0.1744,0.1927,0.1898,0.1967,0.2019,0.202,0.1826,0.1774,0.1711,0.1643,0.197,0.1968,0.1967,0.1965,0,0.1647,0.154,0.1472,0.1462,0.1345,0.1378,0.1345,0.1383,0.14,0.1494,0.1542,0.1655,0.1793,0.1876,0.2002,0.1985,0.215,0.2137,0.1924,0.1902,0.1909,0.188,0.2251,0.2251,0.2251,0.2252,0.2252,0,0.164,0.1611,0.1524,0.1505,0.1478,0.1479,0.147,0.1498,0.1557,0.1623,0.1664,0.1734,0.1855,0.1941,0.1999,0.1979,0.2157,0.1913,0.1892,0.1858,0.1826,0.2197,0.2191,0.2251,0.2251,0.2251,0.2251,0,0.1648,0.1649,0.1566,0.1483,0.1471,0.1534,0.1481,0.1509,0.161,0.1706,0.176,0.184,0.195,0.1992,0.2131,0.1983,0.1991,0.1954,0.1832,0.1791,0.1655,0.1645,0.1627,0.1617,0.1609,0.1603,0.1597,0,0.1614,0.1554,0.1493,0.1543,0.1515,0.1526,0.1508,0.1542,0.1588,0.1766,0.1852,0.1961,0.1933,0.1906,0.182,0.1733,0.1915,0.1521,0.1452,0.1616,0.1599,0.1602,0.1603,0.1418,0.1411,0.1406,0.1402,0,0.1534,0.1579,0.1562,0.1457,0.1524,0.1481,0.1502,0.1503,0.1643,0.1694,0.1818,0.1792,0.179,0.161,0.1454,0.1399,0.1491,0.1385,0.1717,0.1525,0.1401,0.1389,0.1403,0.1353,0.1358,0.1362,0.1364,0.1366,0.1496,0.1496,0.1465,0.1438,0.1508,0.1509,0.1442,0.1465,0.1491,0.162,0.1679,0.1601,0.1482,0.1135,0.1096,0.1071,0.1108,0.1007,0.1035,0.1066,0.0986,0.085,0.0679,0.068,0.0681,0.0682,0.0682,0,0.1351,0.1419,0.1384,0.1441,0.1473,0.1489,0.149,0.1422,0.1411,0.1453,0.1462,0.1137,0.0941,0.0969,0.0825,0.0616,0.0731,0.0604,0.084,0.0882,0.0921,0.0847,0.0497,0.0497,0.0497,0.0497,0,0,0.134,0.131,0.1313,0.1426,0.1465,0.1447,0.1442,0.1355,0.1309,0.1123,0.1041,0.0974,0.0866,0.0682,0.0601,0.0595,0.0762,0.0555,0.07,0.1026,0.1067,0.1127,0.1051,0,0,0,0,0]},{"header":{"parameterUnit":"m.s-1","parameterCategory":2,"la1":30.2991,"la2":30.254,"lo1":-89.0895,"lo2":-89.0444,"dy":0.0017,"dx":0.0017,"nx":28,"ny":28,"refTime":"2023-07-22T03:00:00:Z","depth":"2","parameterNumber":3,"parameterNumberName":"V-component_of_CURRENTS"},"data":[0,0,0,0,0,0,0,0,0,0,0,0,0,0,0,0,0,0,0,0,0,0,0,0,0,0,0,0,0,0,0,0,0,0,0,0,0,0,0,0,0,0,0,0,0,0,0,0,0,0,0,0,0,0,0,0,0,0,0.0088,0.009,0,0.0056,0.0054,0.0051,-0.0022,-0.0021,-0.002,-0.0019,-0.0059,-0.0061,-0.0063,0,0,0,0,0,0,0,0,0,0,0,0,0,-0.0066,-0.0064,0.0088,0.009,0.0092,0.0057,0.0053,0.005,-0.0022,-0.0021,-0.002,-0.0018,-0.0058,-0.0061,-0.0063,0,0,0,0,0,0,0,0,0,0,0,0,0,-0.0066,-0.0064,0.0087,0.0073,0.0073,0.0057,0.0053,0.0049,-0.0023,-0.0021,-0.0019,-0.0018,-0.0058,-0.0061,-0.0064,-0.0117,0,0,-0.0073,-0.0075,0,0,0,0,0,0,0,0,-0.0065,-0.0064,0.0073,0.0074,0.0075,0.0048,-0.0014,0.0003,-0.0023,-0.0017,-0.0019,-0.0017,-0.0006,-0.0014,-0.0065,-0.0119,-0.0121,-0.0074,-0.0076,-0.0077,-0.0078,0,0,0,0,0,0,0,-0.0065,-0.0063,0.0046,0.0076,0.0077,0.0019,0.0018,-0.0014,-0.0043,-0.0017,-0.0015,0.0026,-0.001,-0.0062,-0.0065,-0.0122,-0.0074,-0.0076,-0.0078,-0.008,-0.013,-0.0129,0,0,0,0,0,0,0.0003,-0.0062,0.0048,0.0048,0.004,0.0023,0.0021,0.0031,-0.0043,-0.0044,0.0025,0.0024,-0.0057,-0.0062,-0.0067,-0.0046,-0.0077,-0.008,-0.0082,-0.013,-0.013,-0.0129,0,0,0,0,0,0,-0.0001,0.0011,0.0049,0.0017,0.0021,0.0028,0.0037,0.0031,0.0006,-0.0005,-0.0012,0.0015,-0.0056,-0.0062,-0.0091,-0.005,-0.0081,-0.0084,-0.0131,-0.013,-0.0129,-0.0059,0,0,0,0,0,0,-0.0006,0.0009,0.0019,0.0021,0.0027,0.0076,0.0038,0.003,0.0042,0.0039,-0.0016,-0.002,-0.0055,-0.0086,-0.0094,-0.0055,-0.0087,-0.0132,-0.0131,-0.013,-0.0062,-0.0056,-0.005,0,0,0,0,0,-0.0013,-0.0005,0.0018,0.0034,0.0046,0.0081,0.0074,0.0065,0.0041,0.004,-0.0016,-0.0017,-0.0083,-0.009,-0.0099,-0.0059,-0.0132,-0.0131,-0.013,-0.0065,-0.0057,-0.0051,0,0,0,0,0,0,-0.0083,-0.0008,0.0016,0.0042,0.009,0.0081,0.0079,0.0076,0.0021,0.0,-0.0034,-0.0042,-0.0057,-0.0071,-0.0077,-0.007,-0.0098,-0.0098,-0.0045,-0.0038,-0.0033,0.0018,-0.0089,0,0,0,0,0,-0.0078,-0.003,0.0021,0.0062,0.007,0.0074,0.0082,0.0079,0.0057,0.0031,0.0019,-0.0019,-0.0067,-0.006,-0.0106,-0.0102,-0.0104,-0.0075,-0.007,-0.0064,-0.0029,-0.0043,-0.0035,-0.0125,-0.0125,-0.0125,0,0,-0.0087,-0.0027,-0.0005,0.0057,0.0066,0.009,0.0073,0.009,0.0118,0.0038,0.0046,-0.0014,-0.0071,-0.0084,-0.0084,-0.0077,-0.0037,-0.0063,-0.0058,-0.0025,-0.0041,-0.0032,-0.0024,-0.0124,-0.0124,-0.0124,0,0,-0.0055,-0.0038,0.0009,0.0049,0.0114,0.0104,0.0126,0.0134,0.0134,0.0134,0.0071,0.0042,0.0008,-0.0022,-0.005,-0.0034,-0.0031,-0.0031,0.007,0.0055,0.0063,0.0069,0.0094,0.0103,0.0002,0.0003,0.0003,0,-0.0072,0.0004,0.0028,0.0087,0.0122,0.0122,0.0152,0.0151,0.0165,0.0178,0.0158,0.0085,0.0036,0.0017,0.0024,-0.0016,-0.0009,0.0045,0.0064,0.0071,0.0077,0.01,0.0109,0.0006,0.0006,0.0005,0.0005,0,-0.0009,0.0057,0.0082,0.016,0.0181,0.0212,0.0235,0.0255,0.0249,0.0264,0.0259,0.0179,0.0155,0.0134,0.008,0.0108,0.0104,0.0047,0.0051,0.009,0.0112,0.012,0.0011,0.001,0.0009,0.0008,0,0,-0.0076,0.0093,0.0093,0.0167,0.0215,0.0238,0.0277,0.0316,0.0352,0.0358,0.0409,0.0322,0.0304,0.0273,0.0214,0.0219,0.0251,0.0179,0.0176,0.0215,0.0262,0.0336,0.0351,0.02,0.0201,0.0202,0.0267,0,-0.0038,0.0091,0.0145,0.0243,0.03,0.0319,0.0351,0.0386,0.0414,0.0469,0.0425,0.0418,0.0353,0.0331,0.0331,0.0254,0.0273,0.0242,0.0211,0.0212,0.028,0.0363,0.023,0.0284,0.0274,0.0276,0.0277,0,-0.0009,0.0086,0.0175,0.032,0.0327,0.0367,0.0415,0.0446,0.0509,0.0534,0.056,0.0543,0.0548,0.047,0.0435,0.0423,0.0369,0.0319,0.0318,0.0377,0.0301,0.0239,0.0298,0.0289,0.0288,0.0287,0.0286,0,-0.006,0.0107,0.0179,0.0224,0.0345,0.038,0.0408,0.0463,0.0493,0.0584,0.063,0.0643,0.0632,0.0588,0.0518,0.0477,0.049,0.0401,0.0427,0.0432,0.0312,0.0305,0.0388,0.0388,0.0388,0.0388,0.0388,0,-0.0042,0.0023,0.0177,0.0217,0.0292,0.0359,0.0411,0.0467,0.0532,0.0597,0.065,0.0713,0.0659,0.067,0.059,0.0574,0.0545,0.0492,0.0466,0.0336,0.0331,0.0316,0.0306,0.039,0.039,0.0389,0.0389,0,-0.0102,-0.0008,0.0108,0.0244,0.0283,0.0318,0.041,0.0455,0.0522,0.0622,0.0652,0.0758,0.0786,0.0752,0.0689,0.0666,0.0624,0.0609,0.0499,0.0463,0.0561,0.0554,0.0671,0.0675,0.0678,0.068,0.0682,0,-0.0112,-0.0061,0.0096,0.0153,0.0222,0.0293,0.0333,0.0421,0.0493,0.0656,0.0715,0.0801,0.0885,0.0883,0.0788,0.0727,0.0693,0.0636,0.0536,0.0634,0.0596,0.0585,0.0574,0.0391,0.0391,0.039,0.039,0,-0.013,-0.0091,0.0001,0.0107,0.0187,0.0285,0.0385,0.0444,0.0559,0.0655,0.0814,0.0895,0.0914,0.0829,0.0794,0.0728,0.0648,0.0635,0.0738,0.0368,0.0383,0.0342,0.0338,0.0387,0.0387,0.0387,0.0387,0.0388,-0.0156,-0.0092,0.0009,0.0098,0.0191,0.0311,0.0388,0.0501,0.0605,0.0769,0.0829,0.0914,0.0819,0.073,0.0662,0.062,0.0642,0.0584,0.0578,0.0574,0.0558,0.058,0.0619,0.0621,0.0622,0.0624,0.0625,0,-0.0147,-0.0078,0.0003,0.0148,0.0236,0.0288,0.0444,0.0522,0.0661,0.076,0.0846,0.0721,0.0653,0.0601,0.0495,0.0481,0.0398,0.049,0.033,0.0334,0.0337,0.0303,0.0299,0.0299,0.0299,0.0298,0,0,-0.0119,-0.0056,-0.0009,0.0149,0.0253,0.0389,0.0488,0.0588,0.0676,0.0751,0.0762,0.0728,0.0664,0.0498,0.0397,0.0369,0.0378,0.0364,0.0615,0.0438,0.0442,0.037,0.0322,0,0,0,0,0]}],[{"header":{"parameterUnit":"m.s-1","parameterCategory":2,"la1":30.2991,"la2":30.254,"lo1":-89.0895,"lo2":-89.0444,"dy":0.0017,"dx":0.0017,"nx":28,"ny":28,"refTime":"2023-07-22T03:00:00:Z","depth":"4","parameterNumber":2,"parameterNumberName":"U-component_of_CURRENTS"},"data":[0,0,0,0,0,0,0,0,0,0,0,0,0,0,0,0,0,0,0,0,0,0,0,0,0,0,0,0,0,0,0,0,0,0,0,0,0,0,0,0,0,0,0,0,0,0,0,0,0,0,0,0,0,0,0,0,0,0,-0.0897,-0.0896,0,-0.0844,-0.0843,-0.0842,-0.0843,-0.0844,-0.0845,-0.0846,-0.1017,-0.1021,-0.1024,0,0,0,0,0,0,0,0,0,0,0,0,0,-0.0914,-0.0914,-0.0897,-0.0896,-0.0896,-0.0844,-0.0843,-0.0842,-0.0843,-0.0844,-0.0845,-0.0846,-0.1016,-0.102,-0.1025,0,0,0,0,0,0,0,0,0,0,0,0,0,-0.0886,-0.0914,-0.0897,-0.0892,-0.0891,-0.0844,-0.0843,-0.0842,-0.0843,-0.0844,-0.0845,-0.0847,-0.1014,-0.102,-0.1025,-0.1031,0,0,-0.1042,-0.1044,0,0,0,0,0,0,0,0,-0.0888,-0.0886,-0.0893,-0.0892,-0.0891,-0.0854,-0.0912,-0.0917,-0.0842,-0.0858,-0.0846,-0.0847,-0.0984,-0.0992,-0.0972,-0.1039,-0.1047,-0.1043,-0.1046,-0.1048,-0.105,0,0,0,0,0,0,0,-0.089,-0.0887,-0.0873,-0.0892,-0.0891,-0.0864,-0.0862,-0.0911,-0.0916,-0.0857,-0.0858,-0.0855,-0.0985,-0.0966,-0.0977,-0.1049,-0.1042,-0.1047,-0.1051,-0.1053,-0.1232,-0.1234,0,0,0,0,0,0,-0.0904,-0.0889,-0.0875,-0.0872,-0.0896,-0.0863,-0.086,-0.0862,-0.0911,-0.0918,-0.0854,-0.0855,-0.0956,-0.097,-0.0983,-0.1129,-0.1048,-0.1053,-0.1057,-0.1231,-0.1233,-0.1234,0,0,0,0,0,0,-0.0905,-0.0904,-0.0877,-0.0881,-0.0876,-0.0862,-0.0863,-0.0861,-0.0879,-0.0906,-0.0918,-0.088,-0.0958,-0.0976,-0.1062,-0.1131,-0.1056,-0.1061,-0.1229,-0.1231,-0.1233,-0.1335,0,0,0,0,0,0,-0.0906,-0.0904,-0.0916,-0.0882,-0.0877,-0.087,-0.0862,-0.0859,-0.0874,-0.0877,-0.0933,-0.0947,-0.096,-0.1054,-0.1067,-0.1137,-0.1065,-0.1227,-0.123,-0.1233,-0.133,-0.1341,-0.135,0,0,0,0,0,-0.0907,-0.0908,-0.0917,-0.0915,-0.0892,-0.0871,-0.0865,-0.0857,-0.0875,-0.088,-0.093,-0.0947,-0.108,-0.1059,-0.1075,-0.1149,-0.1226,-0.1229,-0.1232,-0.1326,-0.1339,-0.1349,0,0,0,0,0,0,-0.0911,-0.0908,-0.0916,-0.0916,-0.0909,-0.0873,-0.0882,-0.0879,-0.0914,-0.0946,-0.0971,-0.0989,-0.1081,-0.1095,-0.1071,-0.1202,-0.1154,-0.1161,-0.122,-0.1232,-0.1242,-0.1272,-0.107,0,0,0,0,0,-0.0921,-0.0935,-0.0919,-0.0924,-0.0931,-0.0918,-0.0914,-0.0916,-0.0935,-0.0951,-0.0994,-0.1048,-0.1096,-0.1151,-0.1181,-0.1271,-0.1258,-0.1323,-0.1333,-0.1341,-0.1374,-0.1415,-0.1432,-0.1245,-0.1245,-0.1245,0,0,-0.0925,-0.0926,-0.0934,-0.0929,-0.0931,-0.0967,-0.092,-0.0937,-0.0978,-0.0972,-0.1065,-0.1083,-0.112,-0.1205,-0.125,-0.124,-0.1375,-0.1345,-0.1353,-0.1381,-0.142,-0.1439,-0.1455,-0.1247,-0.1247,-0.1246,0,0,-0.0938,-0.095,-0.097,-0.0984,-0.1002,-0.101,-0.103,-0.1032,-0.1046,-0.1129,-0.1124,-0.1175,-0.1281,-0.1291,-0.132,-0.1403,-0.141,-0.1433,-0.1541,-0.158,-0.1597,-0.1612,-0.1566,-0.1575,-0.1459,-0.1459,-0.146,0,-0.0945,-0.098,-0.0969,-0.1005,-0.1045,-0.1049,-0.1104,-0.1113,-0.1146,-0.1157,-0.119,-0.1301,-0.1319,-0.1401,-0.1438,-0.1429,-0.1442,-0.1497,-0.1596,-0.1611,-0.1624,-0.1574,-0.1583,-0.1465,-0.1464,-0.1464,-0.1463,0,-0.0973,-0.1028,-0.1048,-0.1121,-0.1153,-0.1201,-0.1233,-0.1274,-0.1327,-0.1319,-0.1407,-0.144,-0.1503,-0.1519,-0.1529,-0.1629,-0.1598,-0.1587,-0.1571,-0.1649,-0.159,-0.1598,-0.1472,-0.147,-0.1469,-0.1468,0,0,-0.0936,-0.1048,-0.1066,-0.1124,-0.1232,-0.1247,-0.1354,-0.1399,-0.1447,-0.1508,-0.1584,-0.1653,-0.1651,-0.1682,-0.1686,-0.1748,-0.1818,-0.1749,-0.1749,-0.1711,-0.1883,-0.1667,-0.1654,-0.1864,-0.1867,-0.187,-0.1783,0,-0.0977,-0.1068,-0.1133,-0.1259,-0.1318,-0.1394,-0.1477,-0.1519,-0.1578,-0.1643,-0.1667,-0.1725,-0.1717,-0.177,-0.1838,-0.183,-0.1858,-0.184,-0.1807,-0.1804,-0.1612,-0.1663,-0.1881,-0.1789,-0.1791,-0.1792,-0.1793,0,-0.0995,-0.1059,-0.1194,-0.1325,-0.1359,-0.1436,-0.1572,-0.1638,-0.1709,-0.1757,-0.1838,-0.185,-0.1928,-0.1927,-0.1979,-0.1991,-0.1959,-0.1945,-0.1941,-0.1723,-0.1607,-0.1707,-0.1808,-0.1806,-0.1805,-0.1804,-0.1804,0,-0.0971,-0.11,-0.122,-0.1274,-0.1428,-0.149,-0.1552,-0.1644,-0.1711,-0.1806,-0.1882,-0.1959,-0.2013,-0.2049,-0.2018,-0.2029,-0.2066,-0.2038,-0.179,-0.177,-0.1945,-0.1931,-0.2068,-0.2068,-0.2068,-0.2068,-0.2069,0,-0.0974,-0.107,-0.12,-0.1274,-0.1359,-0.146,-0.1578,-0.1633,-0.1774,-0.1769,-0.1915,-0.1902,-0.2071,-0.2091,-0.2064,-0.1942,-0.2076,-0.1815,-0.1756,-0.1977,-0.1969,-0.1946,-0.1933,-0.2065,-0.2066,-0.2066,-0.2067,0,-0.0935,-0.1046,-0.1191,-0.1347,-0.1368,-0.1419,-0.1567,-0.1619,-0.1763,-0.1795,-0.1827,-0.1918,-0.1838,-0.196,-0.1961,-0.1937,-0.1864,-0.1773,-0.1968,-0.1919,-0.1522,-0.1515,-0.1484,-0.1476,-0.1469,-0.1464,-0.1459,0,-0.0918,-0.1,-0.1217,-0.1242,-0.1307,-0.139,-0.1424,-0.1584,-0.1576,-0.1661,-0.1588,-0.1635,-0.1626,-0.1508,-0.1611,-0.1594,-0.1566,-0.16,-0.1612,-0.1527,-0.1474,-0.1477,-0.148,-0.1448,-0.1447,-0.1445,-0.1443,0,-0.0893,-0.1029,-0.1141,-0.1202,-0.1242,-0.1281,-0.1269,-0.1289,-0.1366,-0.1534,-0.1316,-0.1314,-0.1227,-0.1233,-0.131,-0.126,-0.1649,-0.153,-0.1543,-0.1554,-0.1484,-0.1438,-0.1448,-0.142,-0.1424,-0.1426,-0.1427,0,-0.0905,-0.0955,-0.1112,-0.1124,-0.1159,-0.1082,-0.1138,-0.1036,-0.1093,-0.1136,-0.0972,-0.0993,-0.1049,-0.1035,-0.1017,-0.1071,-0.1032,-0.1092,-0.1128,-0.1155,-0.1105,-0.0972,-0.0705,0,0,0,0,0,-0.088,-0.0919,-0.0964,-0.0974,-0.0984,-0.099,-0.0975,-0.1018,-0.1051,-0.0841,-0.0933,-0.0775,-0.076,-0.0754,-0.0736,-0.0885,-0.1086,-0.087,-0.1184,-0.1293,-0.1319,-0.1302,0,0,0,0,0,0,-0.0866,-0.0963,-0.0964,-0.0823,-0.0772,-0.0747,-0.0757,-0.0772,-0.0637,-0.0679,-0.0636,-0.0727,-0.0698,-0.0731,-0.0705,-0.0729,-0.0917,-0.0907,-0.0906,-0.1278,-0.1302,-0.1323,-0.1314,0,0,0,0,0]},{"header":{"parameterUnit":"m.s-1","parameterCategory":2,"la1":30.2991,"la2":30.254,"lo1":-89.0895,"lo2":-89.0444,"dy":0.0017,"dx":0.0017,"nx":28,"ny":28,"refTime":"2023-07-22T03:00:00:Z","depth":"4","parameterNumber":3,"parameterNumberName":"V-component_of_CURRENTS"},"data":[0,0,0,0,0,0,0,0,0,0,0,0,0,0,0,0,0,0,0,0,0,0,0,0,0,0,0,0,0,0,0,0,0,0,0,0,0,0,0,0,0,0,0,0,0,0,0,0,0,0,0,0,0,0,0,0,0,0,0.0293,0.0293,0,0.0325,0.0326,0.0326,0.0383,0.0383,0.0384,0.0385,0.0391,0.0391,0.039,0,0,0,0,0,0,0,0,0,0,0,0,0,0.0305,0.0305,0.0293,0.0293,0.0293,0.0325,0.0326,0.0327,0.0383,0.0383,0.0384,0.0385,0.0391,0.0391,0.039,0,0,0,0,0,0,0,0,0,0,0,0,0,0.0318,0.0305,0.0293,0.0322,0.0325,0.0325,0.0326,0.0327,0.0382,0.0383,0.0385,0.0386,0.0392,0.0391,0.039,0.0362,0,0,0.0388,0.0387,0,0,0,0,0,0,0,0,0.0317,0.0318,0.0318,0.032,0.0323,0.0348,0.0332,0.0336,0.0382,0.0364,0.0385,0.0386,0.0371,0.0372,0.0381,0.0362,0.0363,0.0387,0.0387,0.0387,0.0386,0,0,0,0,0,0,0,0.0316,0.0317,0.0309,0.0318,0.0321,0.0343,0.0346,0.0334,0.0363,0.0366,0.0369,0.0367,0.0373,0.0382,0.0381,0.0363,0.0387,0.0387,0.0386,0.0386,0.0405,0.0405,0,0,0,0,0,0,0.0303,0.0316,0.0308,0.0309,0.0319,0.0341,0.0345,0.0342,0.0364,0.0367,0.0366,0.037,0.0382,0.0382,0.0382,0.0368,0.0387,0.0386,0.0385,0.0404,0.0405,0.0406,0,0,0,0,0,0,0.0303,0.0302,0.0306,0.0311,0.0313,0.0339,0.0335,0.0342,0.0354,0.0364,0.0368,0.0372,0.0383,0.0383,0.0371,0.0368,0.0385,0.0385,0.0402,0.0404,0.0405,0.0328,0,0,0,0,0,0,0.0303,0.0301,0.0305,0.031,0.0312,0.0298,0.0334,0.0341,0.0349,0.0354,0.0369,0.0371,0.0384,0.0372,0.037,0.0367,0.0384,0.0401,0.0403,0.0405,0.0329,0.0327,0.0324,0,0,0,0,0,0.0303,0.029,0.0305,0.0305,0.0313,0.0296,0.0299,0.0325,0.0348,0.0343,0.0358,0.0371,0.0385,0.0371,0.0369,0.0365,0.04,0.0403,0.0405,0.033,0.0327,0.0324,0,0,0,0,0,0,0.0291,0.0294,0.0311,0.0299,0.0297,0.0304,0.0305,0.0319,0.0329,0.0336,0.0357,0.0358,0.0356,0.0374,0.0359,0.0385,0.0405,0.0407,0.035,0.0347,0.0344,0.0325,0.0383,0,0,0,0,0,0.029,0.0284,0.0287,0.0276,0.0277,0.0292,0.0294,0.0303,0.0307,0.0315,0.033,0.0354,0.0363,0.0363,0.0377,0.0366,0.0405,0.0377,0.0374,0.0371,0.036,0.0431,0.0433,0.0413,0.0413,0.0413,0,0,0.0282,0.0281,0.028,0.0274,0.0281,0.0257,0.0297,0.0286,0.0272,0.0309,0.0306,0.0334,0.036,0.036,0.0363,0.0371,0.0398,0.0374,0.0371,0.0361,0.0433,0.0435,0.0436,0.0415,0.0414,0.0414,0,0,0.0244,0.0262,0.0243,0.0235,0.0231,0.0233,0.0226,0.0234,0.0252,0.0245,0.0279,0.0301,0.0316,0.0335,0.0345,0.0336,0.0382,0.0357,0.0318,0.0387,0.0388,0.039,0.0431,0.0437,0.0355,0.0355,0.0355,0,0.024,0.0211,0.0232,0.0204,0.0184,0.0216,0.0174,0.019,0.0196,0.02,0.0238,0.0282,0.0305,0.03,0.0309,0.0326,0.0369,0.0316,0.038,0.0383,0.0386,0.0428,0.0436,0.0352,0.0352,0.0353,0.0353,0,0.018,0.0162,0.0145,0.0121,0.0099,0.007,0.0077,0.0078,0.0109,0.0132,0.0155,0.0206,0.0231,0.0258,0.0276,0.0306,0.033,0.0365,0.0377,0.0383,0.0428,0.0437,0.0347,0.0348,0.0349,0.035,0,0,0.0169,0.0115,0.0115,0.0073,0.0051,0.0014,-0.0006,-0.0021,-0.0033,0.0028,0.0026,0.0082,0.0134,0.0152,0.0196,0.0261,0.0322,0.0318,0.0324,0.0338,0.0461,0.0326,0.0323,0.0374,0.0376,0.0377,0.0478,0,0.0123,0.0042,0.0029,-0.006,-0.0108,-0.0106,-0.0137,-0.0144,-0.0111,-0.0095,-0.001,0.0015,0.0087,0.0106,0.0179,0.03,0.0345,0.029,0.0471,0.0476,0.0338,0.0329,0.0382,0.0485,0.0487,0.0489,0.049,0,0.0082,0.0023,-0.0063,-0.0169,-0.0189,-0.0224,-0.0281,-0.0301,-0.0264,-0.0232,-0.0174,-0.0108,-0.0015,0.0053,0.0252,0.0219,0.0318,0.0415,0.0422,0.0325,0.0356,0.0486,0.0508,0.0506,0.0505,0.0504,0.0503,0,0.0054,-0.0045,-0.0122,-0.0153,-0.025,-0.0281,-0.0319,-0.0322,-0.0343,-0.0295,-0.029,-0.0173,-0.0106,0.0062,0.0255,0.0266,0.0475,0.0517,0.0474,0.0467,0.0594,0.0591,0.0621,0.0621,0.0621,0.0621,0.062,0,0.0007,-0.0058,-0.0132,-0.0175,-0.028,-0.0321,-0.0394,-0.0405,-0.0407,-0.0421,-0.0343,-0.0334,-0.0094,0.0042,0.0227,0.0372,0.0457,0.0449,0.0477,0.0559,0.0552,0.06,0.0596,0.0624,0.0624,0.0623,0.0622,0,-0.0015,-0.0052,-0.0159,-0.0259,-0.0288,-0.0355,-0.0448,-0.0503,-0.0481,-0.0491,-0.0478,-0.0417,-0.0274,-0.0065,0.0196,0.0303,0.0482,0.0497,0.0542,0.0576,0.0433,0.0425,0.0461,0.0457,0.0453,0.045,0.0448,0,-0.0043,-0.0084,-0.0206,-0.0268,-0.0306,-0.0401,-0.0475,-0.0517,-0.0539,-0.0542,-0.0535,-0.0474,-0.0409,-0.0115,0.0059,0.0334,0.0358,0.0458,0.0454,0.0388,0.0415,0.0412,0.0408,0.0442,0.0441,0.0441,0.044,0,-0.0104,-0.0119,-0.0213,-0.0308,-0.0393,-0.0525,-0.0584,-0.0579,-0.0599,-0.0623,-0.0548,-0.0465,-0.0371,-0.0175,-0.0001,0.0206,0.0417,0.0423,0.0432,0.0429,0.0367,0.0396,0.0396,0.0428,0.0429,0.0431,0.0431,0,-0.0144,-0.0213,-0.0286,-0.0361,-0.0473,-0.0543,-0.0603,-0.0607,-0.0628,-0.055,-0.0549,-0.0452,-0.0399,-0.0253,-0.0068,0.0084,0.0113,0.0226,0.0246,0.0261,0.0148,0.0037,0.0005,0,0,0,0,0,-0.0184,-0.0236,-0.0334,-0.0421,-0.0512,-0.0539,-0.0636,-0.067,-0.0639,-0.0572,-0.0529,-0.0435,-0.0283,-0.0257,-0.0125,-0.0179,0.0112,-0.0027,0.0249,0.0361,0.0375,0.026,0,0,0,0,0,0,-0.0233,-0.0314,-0.0337,-0.0403,-0.0421,-0.0539,-0.0563,-0.0577,-0.0508,-0.0464,-0.0382,-0.0375,-0.0235,-0.0306,-0.0096,-0.0078,0.0117,0.0026,0.0029,0.0353,0.0366,0.0377,0.0264,0,0,0,0,0]}]]